User: anonymous   Login
Location: Unspecified
(0.0000°N, 0.0000°E)
Time: 06:56:06
(UTC+02:00)
Language:

NOAA 12 - Orbit

View from above orbital plane
View from above orbital plane
View from above satellite
View from above satellite

Ground track
Ground track

The orbit data is extracted from the following two-line orbital elements,

1 21263U 91032A   17235.52409711 -.00000009 +00000-0 +14118-4 0  9995
2 21263 098.5608 258.0204 0014907 085.9284 274.3600 14.25846784366062
Epoch (UTC): 23 August 2017 12:34:41
Eccentricity: 0.0014907
inclination: 98.5608°
perigee height: 795 km
apogee height: 816 km
right ascension of ascending node: 258.0204°
argument of perigee: 85.9284°
revolutions per day: 14.25846784
mean anomaly at epoch: 274.3600°
orbit number at epoch: 36606

The dashed part of the orbit path shows where the satellite is in the earth's shadow,  

DLR